Regional Weather Roundup
Issued by NWS

Home | Current Version | Previous Version | Text Only | Print | Product List | Glossary On
Versions: 1 2 3 4 5 6 7 8 9 10 11 12 13 14 15 16 17 18 19 20 21 22 23 24 25 26 27 28 29 30 31 32 33 34 35 36 37 38 39 40 41 42 43 44 45 46 47 48 49 50
000
ASUS43 KBIS 211120
RWRND

NORTH DAKOTA REGIONAL WEATHER ROUNDUP
NATIONAL WEATHER SERVICE BISMARCK ND
600 AM CDT THU AUG 21 2014

NOTE: "FAIR" INDICATES FEW OR NO CLOUDS BELOW 12,000 FEET WITH NO
SIGNIFICANT WEATHER AND/OR OBSTRUCTIONS TO VISIBILITY.


NDZ001>003-009>011-017-211200-
NORTHWEST NORTH DAKOTA

CITY           SKY/WX    TMP DP  RH WIND       PRES   REMARKS
WILLISTON      FOG       54  54 100 CALM      29.85R VSB 1/2
MINOT          CLOUDY    64  63  96 NW6       29.79R
MINOT AFB      CLOUDY    64  64 100 N5        29.78R
$$

NDZ018>021-031>035-040>046-211200-
SOUTHWEST NORTH DAKOTA

CITY           SKY/WX    TMP DP  RH WIND       PRES   REMARKS
BISMARCK       PTCLDY    65  64  97 NW8       29.77R
DICKINSON      CLEAR     55  53  93 W6        29.83R
GARRISON         N/A     64  64 100 NW13G18   29.78R
HETTINGER ARPT PTCLDY    56  53  90 N3        29.86R
$$

NDZ004>008-012>016-024-026-027-054-211200-
NORTHEAST NORTH DAKOTA

CITY           SKY/WX    TMP DP  RH WIND       PRES   REMARKS
GRAND FORKS    CLOUDY    69  65  86 SE7       29.74R
GRND FRKS AFB  CLOUDY    68  68 100 E1        29.77R
DEVILS LAKE    CLOUDY    68  63  83 E7        29.75R
$$

NDZ022-023-025-028>030-036>039-047>053-211200-
SOUTHEAST NORTH DAKOTA

CITY           SKY/WX    TMP DP  RH WIND       PRES   REMARKS
FARGO          CLOUDY    70  68  93 N3        29.73R
JAMESTOWN      CLOUDY    69  67  93 E6        29.74R
$$



USA.gov is the U.S. government's official web portal to all federal, state and local government web resources and services.